Volver al catálogo

STARLINK-34365

ActivoComunicacionesVLEO
NORAD 64671·PAYLOAD·🇺🇸 United States

Lanzado Jun 28, 2025 desde Cape Canaveral Space Force Station

Loading…

Próximos Pases (próximas 24 horas)

TLE

ActualizadoSource: CelesTrak SupGP

Época: Sep 14, 2026, 20:33 UTC

1 64671C 25139H   26257.85673611 -.00020679  00000+0 -61124-3 0  2572
2 64671  53.1596 324.4040 0001199  81.5594 237.8616 15.34387123    15

Sigue STARLINK-34365 en tiempo real con AllMySat

Download on the App Store